Flag for Russia Weather past 2 weeks in Kaliningrad, Russia

Now
39 °F

Sprinkles. Mostly cloudy.


Feels Like: 34 °F
Forecast: 33 / 48 °F
Wind: 8 mph from Northwest

Location: Kaliningrad/Khrabrovo Airport

Current Time: Mar 28, 2015 at 1:10:48 AM

Latest Report: Mar 28, 2015 at 12:00 AM


Visibility: 4 mi

Pressure: 29.95 "Hg

Humidity: 93%

Dew point: 37 °F

Location of KaliningradLocation

Historic Weather in Kaliningrad — Graph

°F

Kaliningrad temperature yesterday

Maximum temperature yesterday: 50 °F (at 5:00 AM)
Minimum temperature yesterday: 39 °F (at 7:00 PM)
Average temperature yesterday: 43 °F

Past Weeks' High & Low Weather Summary

 TemperatureHumidityPressure
High61 °F (Mar 26, 2:00 PM)100% (Mar 21, 7:00 AM)30.80 "Hg (Mar 21, 7:00 AM)
Low25 °F (Mar 19, 4:30 AM)21% (Mar 17, 3:00 PM)29.71 "Hg (Mar 26, 5:00 PM)
Average41 °F68%30.26 "Hg
* Reported Midnight between Mar 12 and Mar 13 — Midnight between Mar 27 and Mar 28, Kaliningrad, Weather by CustomWeather, © 2015

Note: Actual official high and low records may vary slightly from our data, if they occured in-between our weather recording intervals... More about our weather records

Advertising

Kaliningrad weather history for previous 24 hours

 ConditionsComfort  
Time TempWeatherWind HumidityBarometerVisibility
12:00 AM
Sat, Mar 28
39 °FSprinkles. Mostly cloudy.8 mph93%29.95 "Hg4 mi
11:30 PM
Fri, Mar 27
39 °FSprinkles. Mostly cloudy.6 mph93%29.95 "Hg4 mi
11:00 PM39 °FSprinkles. Fog.6 mph93%29.95 "Hg2 mi
10:30 PM39 °FSprinkles. Fog.6 mph93%29.95 "Hg2 mi
10:00 PM39 °FSprinkles. Fog.8 mph93%29.92 "Hg2 mi
9:30 PM39 °FSprinkles. Fog.8 mph93%29.92 "Hg2 mi
9:00 PM39 °FMostly cloudy.8 mph93%29.92 "Hg4 mi
8:30 PM39 °FSprinkles. Mostly cloudy.8 mph93%29.92 "Hg4 mi
8:00 PM39 °FSprinkles. Fog.10 mph93%29.89 "Hg3 mi
7:30 PM39 °FSprinkles. Mostly cloudy.10 mph93%29.92 "Hg4 mi
7:00 PM39 °FSprinkles. Fog.10 mph93%29.89 "Hg3 mi
6:30 PM41 °FFog.10 mph87%29.89 "Hg3 mi
6:00 PM41 °FFog.8 mph93%29.89 "Hg2 mi
5:30 PM41 °FFog.8 mph93%29.86 "Hg1 mi
5:00 PM41 °FFog.6 mph93%29.86 "Hg1 mi
4:30 PM41 °FFog.6 mph93%29.86 "Hg2 mi
4:00 PM41 °FFog.6 mph93%29.86 "Hg1 mi
3:30 PM41 °FFog.6 mph93%29.86 "Hg2 mi
3:00 PM41 °FFog.6 mph93%29.86 "Hg2 mi
2:30 PM41 °FFog.6 mph100%29.86 "Hg1 mi
2:00 PM41 °FFog.8 mph93%29.86 "Hg1 mi
1:30 PM41 °FFog.6 mph100%29.86 "Hg1 mi
1:00 PM43 °FFog.6 mph93%29.86 "Hg1 mi
12:30 PM43 °FFog.6 mph93%29.86 "Hg1 mi
12:00 PM43 °FFog.3 mph93%29.86 "Hg1 mi
11:30 AM43 °FFog.3 mph100%29.83 "Hg1 mi
11:00 AM43 °FFog.3 mph93%29.83 "Hg1 mi
10:30 AM45 °FFog.3 mph93%29.83 "Hg1 mi
10:00 AM45 °FFog.3 mph93%29.83 "Hg1 mi
9:30 AM45 °FFog.1 mph93%29.80 "Hg1 mi
9:00 AM43 °FFog.1 mph100%29.80 "Hg1 mi
8:30 AM43 °FFog.1 mph100%29.80 "Hg1 mi
8:00 AM43 °FFog.1 mph100%29.80 "Hg1 mi
7:30 AM43 °FFog.6 mph93%29.77 "Hg1 mi
7:00 AM43 °FFog.8 mph100%29.77 "Hg1 mi
6:30 AM48 °FFog.3 mph94%29.77 "Hg1 mi
6:00 AM48 °FFog.3 mph94%29.74 "Hg1 mi
5:00 AM50 °FFog.6 mph94%29.74 "Hg2 mi
4:30 AM48 °FFog.6 mph100%29.74 "Hg2 mi
4:00 AM48 °FFog.6 mph94%29.74 "Hg1 mi
3:00 AM46 °FFog.6 mph100%29.74 "Hg2 mi
2:00 AM46 °FFog.8 mph93%29.74 "Hg2 mi
1:00 AM46 °FFog.8 mph93%29.74 "Hg3 mi
Weather by CustomWeather, © 2015

See weather overviewHow to use our weather pages